Location: Kalberh�ni
(46.4610°N, 7.2453°E)
Time: 05:33:33
(UTC+00:00)

Cosmos 2369 Rocket - Pass Details

Date: 20 June 2021
Orbit: 827 x 854 km, 71.0° (Epoch: 28 July)

Event Time Altitude Azimuth Distance (km) Brightness Sun altitude
Rises 22:28:44 0° 339° (NNW) 3,434 7.0 -18.6°
Reaches altitude 10° 22:31:41 10° 353° (N) 2,495 5.9 -18.7°
Maximum altitude 22:36:18 25° 47° (NE) 1,683 4.1 -18.9°
Drops below altitude 10° 22:40:54 10° 101° (E) 2,481 4.4 -19.1°
Enters shadow 22:41:40 - 105° (ESE) 2,710 4.6 -19.1°
